Weather History for Glasgow, KY

Change the Weather History Date:

Sunday, February 10, 2013

  Actual Average Record
Temperature  
Mean Temperature 52 °F -  
Max Temperature 60 °F 45 °F 69 °F (1965)
Min Temperature 44 °F 25 °F -4 °F (2011)
Degree Days  
Heating Degree Days 13    
Growing Degree Days 2 (Base 50)    
Moisture  
Dew Point 14 °F    
Average Humidity 35    
Maximum Humidity 89    
Minimum Humidity 4    
Precipitation  
Precipitation 0.20 in - - ()
Sea Level Pressure  
Sea Level Pressure 30.00 in    
Wind  
Wind Speed 8 mph (South)    
Max Wind Speed 20 mph    
Max Gust Speed 30 mph    
Visibility 9 miles    
Events Rain    
Averages and records for this station are not official NWS values.
T = Trace of Precipitation, MM = Missing Value Source: NWS Daily Summary

Daily Weather History Graph

Daily Weather History Graph

Search for Another Location

Airport:

Trip Planner

Search our weather history database for the weather conditions in past years. The results will help you decide how hot, cold, wet, or windy it might be!

Date:

Astronomy

Feb. 10, 2013 Rise Set
Actual Time 6:37 AM CST 5:18 PM CST
Civil Twilight 6:10 AM CST 5:45 PM CST
Nautical Twilight 5:40 AM CST 6:16 PM CST
Astronomical Twilight 5:09 AM CST 6:46 PM CST
Moon 6:28 AM CST (2/10) 6:06 PM CST (2/10)
Length of Visible Light 11h 34m
Length of Day
10h 41m
New Moon, 0% of the Moon is Illuminated
Feb 10
New Moon
Feb 17
First Quarter
Feb 25
Full
Mar 4
Last Quarter
Mar 11
New

Hourly Weather History & Observations

Time (CST) Temp. Windchill Dew Point Humidity Pressure Visibility Wind Dir Wind Speed Gust Speed Precip Events Conditions
12:15 AM 44.4 °F 42.9 °F -2.7 °F 14% 30.15 in 10.0 mi SE 3.5 mph - N/A   Scattered Clouds
12:35 AM 45.9 °F 42.9 °F -8.9 °F 10% 30.15 in 10.0 mi South 5.8 mph - N/A   Mostly Cloudy
12:55 AM 46.9 °F - -13.2 °F 8% 30.15 in 10.0 mi SSE 4.6 mph - N/A   Scattered Clouds
1:15 AM 47.3 °F - -13.5 °F 7% 30.15 in 10.0 mi SSE 6.9 mph - N/A   Clear
1:35 AM 48.2 °F - -18.8 °F 6% 30.14 in 10.0 mi SSE 5.8 mph - N/A   Clear
1:55 AM 48.4 °F - -17.5 °F 6% 30.14 in 10.0 mi SSE 4.6 mph - N/A   Clear
2:15 AM 48.0 °F - -14.3 °F 7% 30.13 in 10.0 mi South 5.8 mph - N/A   Clear
2:35 AM 48.0 °F - -12.6 °F 8% 30.13 in 10.0 mi SSE 4.6 mph - N/A   Clear
2:55 AM 48.0 °F - -11.6 °F 8% 30.12 in 10.0 mi SSE 6.9 mph - N/A   Clear
3:15 AM 48.4 °F - -11.7 °F 8% 30.13 in 10.0 mi South 8.1 mph - N/A   Mostly Cloudy
3:35 AM 48.9 °F - -11.9 °F 8% 30.13 in 10.0 mi South 5.8 mph - N/A   Overcast
3:55 AM 48.4 °F - -2.0 °F 12% 30.13 in 10.0 mi South 4.6 mph - N/A Rain Light Rain
4:15 AM 47.5 °F - 5.9 °F 18% 30.13 in 10.0 mi South 5.8 mph - N/A   Overcast
4:35 AM 48.2 °F - 2.3 °F 15% 30.12 in 10.0 mi SSE 8.1 mph - N/A   Overcast
4:55 AM 48.7 °F - 2.5 °F 15% 30.12 in 10.0 mi South 6.9 mph - N/A Rain Light Rain
5:15 AM 48.4 °F - 8.8 °F 20% 30.11 in 10.0 mi South 5.8 mph - N/A   Overcast
5:35 AM 48.7 °F - 7.2 °F 19% 30.12 in 10.0 mi South 3.5 mph - N/A   Overcast
5:55 AM 49.1 °F - 6.4 °F 18% 30.11 in 10.0 mi SSE 3.5 mph - N/A   Overcast
6:15 AM 49.1 °F - 6.1 °F 17% 30.11 in 10.0 mi SE 4.6 mph - N/A   Overcast
6:35 AM 49.5 °F - 5.0 °F 16% 30.11 in 10.0 mi SSE 5.8 mph - N/A   Overcast
6:55 AM 49.6 °F - 3.9 °F 15% 30.09 in 10.0 mi SSE 6.9 mph - N/A   Mostly Cloudy
7:15 AM 50.0 °F - 0.9 °F 13% 30.10 in 10.0 mi SSE 10.4 mph - N/A   Scattered Clouds
7:35 AM 51.1 °F - -1.7 °F 11% 30.11 in 10.0 mi SSE 10.4 mph 17.3 mph N/A   Mostly Cloudy
7:55 AM 51.8 °F - -4.2 °F 10% 30.10 in 10.0 mi South 9.2 mph - N/A   Overcast
8:15 AM 52.5 °F - -4.5 °F 9% 30.10 in 10.0 mi South 8.1 mph 19.6 mph N/A   Overcast
8:35 AM 52.9 °F - -4.7 °F 9% 30.09 in 10.0 mi SSE 11.5 mph 17.3 mph N/A   Overcast
8:55 AM 53.1 °F - -4.4 °F 9% 30.08 in 10.0 mi SSE 16.1 mph 21.9 mph N/A Rain Light Rain
9:15 AM 53.4 °F - -2.2 °F 10% 30.07 in 10.0 mi SSE 12.7 mph 19.6 mph N/A   Mostly Cloudy
9:35 AM 55.4 °F - -7.1 °F 8% 30.05 in 10.0 mi SSE 11.5 mph 19.6 mph N/A   Scattered Clouds
9:55 AM 57.2 °F - -14.1 °F 5% 30.04 in 10.0 mi SSE 15.0 mph 23.0 mph N/A   Clear
10:15 AM 57.2 °F - -16.6 °F 4% 30.04 in 10.0 mi SSE 17.3 mph 24.2 mph N/A   Mostly Cloudy
10:35 AM 57.7 °F - -20.9 °F 4% 30.02 in 10.0 mi SSE 13.8 mph 25.3 mph N/A   Scattered Clouds
10:55 AM 59.2 °F - -27.0 °F 4% 30.03 in 10.0 mi South 12.7 mph 19.6 mph N/A   Mostly Cloudy
11:15 AM 60.3 °F - -25.2 °F 4% 30.01 in 10.0 mi South 15.0 mph 20.7 mph N/A   Overcast
11:35 AM 60.3 °F - -19.1 °F 4% 30.00 in 10.0 mi South 15.0 mph 28.8 mph N/A   Scattered Clouds
11:55 AM 60.8 °F - -22.9 °F 4% 29.97 in 10.0 mi South 17.3 mph 23.0 mph N/A   Clear
12:15 PM 60.3 °F - -18.4 °F 4% 29.96 in 10.0 mi South 16.1 mph 21.9 mph N/A   Clear
12:35 PM 59.9 °F - -12.3 °F 5% 29.96 in 10.0 mi South 16.1 mph 25.3 mph N/A   Mostly Cloudy
12:55 PM 59.2 °F - -4.2 °F 8% 29.96 in 10.0 mi South 11.5 mph 21.9 mph N/A   Overcast
1:15 PM 58.5 °F - 5.5 °F 12% 29.97 in 10.0 mi South 19.6 mph 29.9 mph N/A Rain Light Rain
1:35 PM 53.8 °F - 25.3 °F 33% 29.98 in 5.0 mi South 15.0 mph 29.9 mph 0.02 in Rain Rain
1:55 PM 50.5 °F - 31.8 °F 49% 29.97 in 5.0 mi South 11.5 mph 18.4 mph 0.07 in Rain Rain
2:15 PM 49.5 °F - 34.5 °F 56% 29.98 in 5.0 mi South 9.2 mph - 0.04 in Rain Rain
2:35 PM 48.9 °F - 38.3 °F 67% 29.98 in 7.0 mi South 8.1 mph 17.3 mph 0.07 in Rain Rain
2:55 PM 48.2 °F - 37.8 °F 67% 29.97 in 5.0 mi SSE 11.5 mph 18.4 mph 0.10 in Rain Rain
3:15 PM 47.7 °F - 38.5 °F 70% 29.93 in 7.0 mi SSE 11.5 mph 19.6 mph 0.02 in Rain Light Rain
3:35 PM 47.1 °F - 41.7 °F 81% 29.90 in 10.0 mi SE 15.0 mph 20.7 mph 0.02 in Rain Light Rain
3:55 PM 47.1 °F - 43.2 °F 86% 29.91 in 10.0 mi South 11.5 mph 21.9 mph 0.03 in   Light Drizzle
4:15 PM 47.5 °F - 43.3 °F 86% 29.91 in 10.0 mi South 12.7 mph 18.4 mph N/A   Overcast
4:35 PM 47.7 °F - 43.3 °F 85% 29.91 in 10.0 mi South 9.2 mph 20.7 mph N/A   Overcast
4:55 PM 48.0 °F - 43.5 °F 84% 29.89 in 10.0 mi South 12.7 mph 23.0 mph N/A   Overcast
5:15 PM 48.6 °F - 43.7 °F 83% 29.88 in 10.0 mi SSE 16.1 mph 23.0 mph N/A   Overcast
5:35 PM 49.1 °F - 44.1 °F 83% 29.88 in 10.0 mi SSE 10.4 mph 18.4 mph N/A   Overcast
5:55 PM 49.8 °F - 39.0 °F 66% 29.88 in 10.0 mi South 11.5 mph 18.4 mph N/A   Overcast
6:15 PM 50.5 °F - 36.3 °F 58% 29.88 in 10.0 mi South 16.1 mph 21.9 mph N/A   Overcast
6:35 PM 51.3 °F - 35.4 °F 55% 29.87 in 10.0 mi South 15.0 mph 20.7 mph N/A   Overcast
6:55 PM 51.8 °F - 34.9 °F 53% 29.85 in 10.0 mi South 12.7 mph 20.7 mph N/A   Overcast
7:15 PM 52.0 °F - 35.1 °F 53% 29.85 in 10.0 mi South 12.7 mph 18.4 mph N/A   Overcast
7:35 PM 52.3 °F - 35.1 °F 52% 29.85 in 10.0 mi South 11.5 mph 20.7 mph N/A   Overcast
7:55 PM 52.9 °F - 35.2 °F 51% 29.86 in 10.0 mi South 16.1 mph - N/A   Overcast
8:15 PM 53.6 °F - 35.6 °F 51% 29.86 in 10.0 mi South 10.4 mph 17.3 mph N/A   Overcast
8:35 PM 53.8 °F - 35.6 °F 50% 29.86 in 10.0 mi South 10.4 mph 17.3 mph N/A   Overcast
8:55 PM 54.0 °F - 36.0 °F 51% 29.86 in 10.0 mi South 6.9 mph - N/A   Overcast
9:15 PM 54.0 °F - 36.5 °F 52% 29.86 in 10.0 mi SSW 6.9 mph - N/A   Overcast
9:35 PM 54.1 °F - 36.5 °F 51% 29.87 in 10.0 mi SW 4.6 mph - N/A   Overcast
9:55 PM 54.3 °F - 36.9 °F 52% 29.88 in 10.0 mi SSW 6.9 mph - N/A Rain Rain
10:15 PM 54.1 °F - 40.3 °F 59% 29.87 in 4.0 mi South 5.8 mph - N/A   Drizzle
10:35 PM 54.1 °F - 48.7 °F 82% 29.88 in 4.0 mi SSW 9.2 mph 19.6 mph N/A   Drizzle
10:55 PM 54.7 °F - 50.9 °F 87% 29.88 in 3.0 mi SSW 8.1 mph - N/A   Drizzle
11:15 PM 54.7 °F - 51.6 °F 89% 29.88 in 10.0 mi SSW 11.5 mph 16.1 mph N/A   Overcast
11:35 PM 55.4 °F - 51.8 °F 88% 29.89 in 10.0 mi SSW 10.4 mph 16.1 mph N/A   Overcast
11:55 PM 55.6 °F - 51.8 °F 87% 29.89 in 10.0 mi SSW 9.2 mph - N/A   Overcast